SL-14 DEB

Satellite information

Favourite Embed

Satellite Type and Status

DEBRISIN ORBIT

Key statistics

Satellite SL-14 DEB at a glance.

Uptime

12456

Days in orbit

Revolutions

≈ 12.4

Per day

Orbit

LEO

Low Earth Orbit

Inclination

82.7

Latest

Satellite identification and parameters

Extended collection of information and parameters for SL-14 DEB.

Object identification

Identified? True

Debris? True

Object name: SL-14 DEB

International designator: 1991-068AX

Object number (NORAD): 35530

Object ID (CCSDS): 35530

Country: COMMONWEALTH OF INDEPENDENT STATES (CIS)

Current information (Y/N): Y

RCS size: SMALL

Orbital parameters

Period: 115.705 minutes

Inclination: 82.7034 deg

SMA: 7865.534 km

Apoapsis: 1507.46 km

Periapsis: 1467.338 km

RAAN: 89.7767 deg

Eccentricy: 0.00255053

Argument of periapsis: 354.5702 deg

Mean anomaly: 189.7329 deg

Mean motion: 12.4454458 rev/day

Mean motion (dot): 0.00000147 rev/day2

B* drag term: 0.00096394435 1/REarth

Two-line elements (TLE)

Creation date: Oct. 29, 2025, 7:31 p.m.

Reference frame: TEME

Reference center: EARTH

Epoch: Oct. 29, 2025, 4:05 a.m. UTC

TLE line 0: 0 SL-14 DEB

TLE line 1: 1 35530U 91068AX 25302.17027289 .00000147 00000-0 96394-3 0 9994

TLE line 2: 2 35530 82.7034 89.7767 0025505 354.5702 189.7329 12.44544580550397

Live tracking on map

Real-time ground track for satellite SL-14 DEB.

In-orbit conjunctions

A list of the most updated potential collisions computed for object SL-14 DEB.

Target Orbit TCA Probability of collision Miss distance Type
COSMOS 733 LEO 2025-01-13 10:17:49 0.0007863416 395.0 (m) PAYLOAD

Associated space launch

Second generation store-dump military communications satellite

SL-14 DEB was lifted into orbit during the mission ‘Tsiklon-3 | Strela-3 67 to 72’, on board a Tsiklon-3 space rocket.

The launch took place on Sept. 28, 1991, 7:05 a.m. from 32/2.

For more information about the launch, click the button.

Launch to space Tsiklon-3 | Strela-3 67 to 72
Tsiklon-3 | Strela-3 67 to 72

Agency: N/A

Status: Launch Successful

Launch date: Sept. 28, 1991, 7:05 a.m. UTC

Rocket: Tsiklon-3

Launch pad: 32/2

Location: Plesetsk Cosmodrome, Russian Federation

...

Latest news about this satellite

There are no fresh news available about this satellite. Check back as we update our databases every day.


Newsletter sign-up

Weekly statistics, charts and insights to help you stay on top of the space industry.